Weather reports worldwide

Advertisment
Coningsby, United Kingdom (3391): temperature & dewpoint: 19.09.2018 11:00:00 - 25.09.2018 11:00:00 (BST)Coningsby, United Kingdom (3391): temperature -20cm & temperature -100cm: 19.09.2018 11:00:00 - 25.09.2018 11:00:00 (BST)Coningsby, United Kingdom (3391): wind speed & gusts: 19.09.2018 11:00:00 - 25.09.2018 11:00:00 (BST)Coningsby, United Kingdom (3391): wind direction: 19.09.2018 11:00:00 - 25.09.2018 11:00:00 (BST)Coningsby, United Kingdom (3391): reduced air pressure: 19.09.2018 11:00:00 - 25.09.2018 11:00:00 (BST)Coningsby, United Kingdom (3391): visibility: 19.09.2018 11:00:00 - 25.09.2018 11:00:00 (BST)Coningsby, United Kingdom (3391): precipitation: 19.09.2018 11:00:00 - 25.09.2018 11:00:00 (BST)
Date & Time tt [°C] td [°C] tt -20cm [°C] tt -100cm [°C] ff [km/h] ff [kn] fx [km/h] fx [kn] dd ppp [hPa] vv [km] rr [mm]
25.09.2018 11:00:00 - - - - - - - - - - - -
25.09.2018 10:00:00 10,1 6,8 11,5 15,0 5 3 - - SW 1038,6 10 0,0
25.09.2018 09:00:00 7,0 5,2 - - 2 1 - - S 1038,7 10 0,0
25.09.2018 08:00:00 3,7 3,3 - - 4 2 - - NNW 1038,3 10 0,0
25.09.2018 07:00:00 2,5 2,1 - - 2 1 - - WNW 1038,0 20 0,0
25.09.2018 06:00:00 2,8 2,0 - - 2 1 - - WNW 1038,0 10 0,0
25.09.2018 05:00:00 3,9 3,2 - - 2 1 - - W 1038,1 10 0,0
25.09.2018 04:00:00 4,4 3,0 - - 2 1 - - W 1038,5 10 0,0
25.09.2018 03:00:00 5,8 4,4 - - 5 3 - - W 1038,7 10 0,0
25.09.2018 02:00:00 6,4 4,0 - - 4 2 - - NW 1038,6 10 0,0
25.09.2018 01:00:00 6,7 4,7 - - 5 3 - - W 1038,8 10 0,0
25.09.2018 00:00:00 4,7 1,5 - - 5 3 - - SW 1038,5 10 0,0
24.09.2018 23:00:00 8,6 4,9 - - 9 5 - - WNW 1038,5 10 0,0
24.09.2018 22:00:00 9,5 5,0 - - 9 5 - - NW 1038,4 10 0,0
24.09.2018 21:00:00 10,1 5,2 - - 5 3 - - NW 1038,0 10 0,0
24.09.2018 20:00:00 11,1 5,1 - - 9 5 - - WNW 1037,4 10 0,0
24.09.2018 19:00:00 13,1 4,4 - - 11 6 - - WNW 1037,1 10 0,0
24.09.2018 18:00:00 13,8 4,4 - - 11 6 - - NW 1036,8 10 0,0
24.09.2018 17:00:00 14,0 3,8 - - 13 7 - - NW 1036,9 10 0,0
24.09.2018 16:00:00 14,8 3,0 - - 18 10 - - NW 1037,2 10 0,0
24.09.2018 15:00:00 14,9 1,5 - - 18 10 - - NW 1037,2 10 0,0
24.09.2018 14:00:00 14,4 2,0 - - 21 11 - - WNW 1037,4 10 0,0
24.09.2018 13:00:00 13,9 3,2 - - 18 10 - - NW 1037,5 10 0,0
24.09.2018 12:00:00 12,7 1,7 - - 16 9 - - WNW 1037,6 10 0,0
24.09.2018 11:00:00 11,2 4,3 - - 18 10 - - NW 1037,5 10 0,0
24.09.2018 10:00:00 9,5 5,3 11,9 15,2 15 8 - - NW 1036,9 10 0,0
24.09.2018 09:00:00 7,5 4,5 - - 15 8 - - NW 1036,3 10 0,0
24.09.2018 08:00:00 5,8 4,0 - - 9 5 - - NW 1035,6 10 0,0
24.09.2018 07:00:00 5,3 3,4 - - 9 5 - - WNW 1034,9 30 0,0
24.09.2018 06:00:00 5,1 3,4 - - 11 6 - - NW 1034,4 10 0,0
24.09.2018 05:00:00 5,9 4,1 - - 8 4 - - NW 1033,8 10 0,0
24.09.2018 04:00:00 6,6 4,5 - - 9 5 - - NW 1033,3 10 0,0
24.09.2018 03:00:00 6,8 4,6 - - 15 8 - - WNW 1032,9 10 0,0
24.09.2018 02:00:00 6,9 5,1 - - 13 7 - - W 1031,8 10 0,0
24.09.2018 01:00:00 4,7 3,8 - - 9 5 - - WSW 1031,0 10 0,0
24.09.2018 00:00:00 6,7 5,1 - - 8 4 - - W 1030,3 10 0,0
23.09.2018 23:00:00 7,2 4,7 - - 4 2 - - NNW 1029,6 10 0,0
23.09.2018 22:00:00 5,8 4,2 - - 5 3 - - WNW 1028,6 10 0,0
23.09.2018 21:00:00 7,6 5,2 - - 5 3 - - NNW 1027,6 10 0,0
23.09.2018 20:00:00 8,0 5,3 - - 5 3 - - NW 1026,2 10 0,0
23.09.2018 19:00:00 9,0 5,6 - - 8 4 55 30 NNW 1024,7 10 0,2
23.09.2018 18:00:00 12,1 4,6 - - 18 10 - - NNW 1023,3 10 0,0
23.09.2018 17:00:00 12,2 4,9 - - 21 11 - - NNW 1022,3 10 0,0
23.09.2018 16:00:00 11,4 4,9 - - 31 17 46 25 N 1021,3 10 0,0
23.09.2018 15:00:00 12,0 5,5 - - 29 16 - - NNW 1019,7 10 0,0
23.09.2018 14:00:00 12,4 5,7 - - 28 15 - - NNW 1018,5 10 0,0
23.09.2018 13:00:00 11,9 4,8 - - 24 13 - - NNW 1018,0 10 0,0
23.09.2018 12:00:00 10,4 5,3 - - 24 13 - - NNW 1017,3 10 0,0
23.09.2018 11:00:00 8,8 5,5 - - 15 8 - - WNW 1016,8 10 0,0
23.09.2018 10:00:00 8,2 5,9 12,5 15,5 13 7 - - WNW 1016,4 10 0,0
23.09.2018 09:00:00 8,1 5,8 - - 13 7 - - NW 1015,8 10 0,0
23.09.2018 08:00:00 8,0 5,9 - - 13 7 - - NNW 1015,0 10 0,0
23.09.2018 07:00:00 8,1 5,9 - - 15 8 - - NNW 1014,8 10 0,0
23.09.2018 06:00:00 8,8 7,5 - - 11 6 - - NNW 1014,9 10 0,0
23.09.2018 05:00:00 9,1 8,2 - - 8 4 - - NNW 1014,7 10 0,0
23.09.2018 04:00:00 8,9 8,1 - - 9 5 - - NNW 1014,9 10 0,0
23.09.2018 03:00:00 9,2 7,9 - - 8 4 - - NNW 1015,0 10 0,0
23.09.2018 02:00:00 9,3 8,3 - - 5 3 - - NW 1015,5 10 0,0
23.09.2018 01:00:00 9,2 8,5 - - 4 2 - - NW 1015,7 10 0,0
23.09.2018 00:00:00 8,4 7,4 - - 2 1 - - WNW 1015,7 10 0,0
22.09.2018 23:00:00 8,7 7,7 - - 2 1 - - S 1015,5 10 0,0
22.09.2018 22:00:00 10,2 8,7 - - 2 1 - - ESE 1015,9 10 0,0
22.09.2018 21:00:00 10,4 8,6 - - 2 1 - - SSE 1015,9 10 0,0
22.09.2018 20:00:00 10,6 8,5 - - 5 3 - - S 1015,7 10 0,0
22.09.2018 19:00:00 11,1 8,2 - - 8 4 - - SW 1015,9 10 0,0
22.09.2018 18:00:00 11,5 8,2 - - 16 9 - - WSW 1015,7 10 0,0
22.09.2018 17:00:00 12,4 6,5 - - 15 8 - - WSW 1015,9 10 0,0
22.09.2018 16:00:00 13,1 8,2 - - 18 10 - - SW 1016,3 10 0,0
22.09.2018 15:00:00 13,5 6,6 - - 18 10 - - WSW 1016,9 10 0,0
22.09.2018 14:00:00 13,2 7,2 - - 18 10 - - WSW 1017,4 10 0,0
22.09.2018 13:00:00 12,9 8,1 - - 16 9 - - WSW 1017,5 10 0,0
22.09.2018 12:00:00 12,0 6,5 - - 24 13 - - W 1017,5 10 0,0
22.09.2018 11:00:00 12,2 6,9 - - 22 12 - - W 1017,8 10 0,0
22.09.2018 10:00:00 11,3 7,7 12,9 15,7 21 11 - - WSW 1017,3 10 0,0
22.09.2018 09:00:00 10,3 8,1 - - 13 7 - - WSW 1017,2 10 0,0
22.09.2018 08:00:00 8,9 7,5 - - 13 7 - - SW 1017,2 10 0,0
22.09.2018 07:00:00 9,0 7,0 - - 9 5 - - WSW 1017,0 10 0,0
22.09.2018 06:00:00 9,1 7,3 - - 11 6 - - WSW 1016,6 10 0,0
22.09.2018 05:00:00 8,2 7,0 - - 11 6 - - SW 1016,4 10 0,0
22.09.2018 04:00:00 8,8 7,3 - - 16 9 - - SW 1016,3 10 0,0
22.09.2018 03:00:00 8,0 6,6 - - 9 5 - - SSW 1016,2 10 0,0
22.09.2018 02:00:00 8,7 6,3 - - 16 9 - - SW 1015,6 10 0,0
22.09.2018 01:00:00 9,6 6,4 - - 21 11 - - WSW 1015,4 10 0,0
22.09.2018 00:00:00 9,5 6,6 - - 18 10 - - WSW 1014,8 10 0,0
21.09.2018 23:00:00 9,9 7,2 - - 18 10 - - WSW 1014,1 10 0,0
21.09.2018 22:00:00 9,5 7,3 - - 16 9 - - WSW 1013,5 10 0,0
21.09.2018 21:00:00 10,2 7,2 - - 22 12 - - WSW 1012,5 10 0,0
21.09.2018 20:00:00 10,9 7,2 - - 26 14 48 26 W 1011,4 10 0,0
21.09.2018 19:00:00 11,4 7,4 - - 34 18 48 26 W 1009,6 10 0,0
21.09.2018 18:00:00 12,0 8,0 - - 39 21 65 35 W 1008,3 10 0,0
21.09.2018 17:00:00 12,7 8,6 - - 42 23 65 35 W 1006,8 10 0,2
21.09.2018 16:00:00 13,5 7,6 - - 44 24 65 35 W 1005,5 10 0,0
21.09.2018 15:00:00 13,0 8,3 - - 34 18 67 36 WSW 1004,9 10 0,0
21.09.2018 14:00:00 13,3 6,3 - - 35 19 67 36 WSW 1004,6 10 0,0
21.09.2018 13:00:00 13,6 5,7 - - 46 25 65 35 WSW 1004,2 10 0,0
21.09.2018 12:00:00 13,3 5,0 - - 39 21 61 33 WSW 1003,5 10 0,0
21.09.2018 11:00:00 13,1 6,1 - - 35 19 54 29 WSW 1003,2 10 0,0
21.09.2018 10:00:00 12,0 5,5 13,7 15,7 37 20 55 30 WSW 1002,5 10 0,0
21.09.2018 09:00:00 10,9 6,0 - - 34 18 52 28 W 1001,4 10 0,0
21.09.2018 08:00:00 10,2 5,9 - - 31 17 50 27 W 1000,4 10 0,0
21.09.2018 07:00:00 10,2 6,0 - - 31 17 63 34 W 998,8 10 0,0
21.09.2018 06:00:00 10,9 5,9 - - 39 21 68 37 W 997,1 10 0,0
21.09.2018 05:00:00 11,0 6,8 - - 39 21 83 45 W 995,1 10 0,0
21.09.2018 04:00:00 12,1 8,4 - - 46 25 74 40 W 993,1 10 0,0
21.09.2018 03:00:00 15,7 11,5 - - 48 26 72 39 SW 990,4 10 0,2
21.09.2018 02:00:00 17,4 15,4 - - 39 21 65 35 SSW 990,3 10 2,8
21.09.2018 01:00:00 17,3 15,7 - - 41 22 67 36 S 991,7 4,0 0,6
21.09.2018 00:00:00 18,0 15,0 - - 41 22 61 33 S 993,1 10 0,0
20.09.2018 23:00:00 18,4 14,6 - - 37 20 54 29 S 995,2 10 0,0
20.09.2018 22:00:00 18,1 14,5 - - 34 18 48 26 S 997,4 10 0,0
20.09.2018 21:00:00 18,1 14,2 - - 31 17 50 27 S 999,1 10 0,0
20.09.2018 20:00:00 18,0 14,2 - - 29 16 50 27 SSW 1000,0 10 0,0
20.09.2018 19:00:00 18,4 14,1 - - 34 18 54 29 SSW 1000,6 10 0,0
20.09.2018 18:00:00 18,6 14,2 - - 39 21 59 32 SSW 1001,7 10 0,0
20.09.2018 17:00:00 18,7 15,0 - - 35 19 55 30 S 1002,6 10 0,0
20.09.2018 16:00:00 18,3 16,2 - - 31 17 48 26 S 1003,6 25 0,0
20.09.2018 15:00:00 14,6 14,4 - - 15 8 - - SE 1005,8 7 0,2
20.09.2018 14:00:00 13,9 13,5 - - 13 7 - - ESE 1007,6 7 1,6
20.09.2018 13:00:00 13,8 12,8 - - 9 5 - - SSE 1008,7 10 0,2
20.09.2018 12:00:00 13,5 12,3 - - 9 5 - - S 1009,8 10 0,2
20.09.2018 11:00:00 13,3 11,9 - - 11 6 - - S 1010,4 10 0,0
20.09.2018 10:00:00 12,5 11,6 13,7 15,7 11 6 - - SSW 1010,8 10 0,0
20.09.2018 09:00:00 11,8 11,4 - - 11 6 - - S 1010,8 10 0,8
20.09.2018 08:00:00 11,4 11,2 - - 11 6 - - SSW 1011,1 8 1,6
20.09.2018 07:00:00 11,3 11,0 - - 9 5 - - SSW 1011,0 10 1,0
20.09.2018 06:00:00 11,4 10,7 - - 9 5 - - SSW 1011,2 10 0,2
20.09.2018 05:00:00 11,5 10,3 - - 11 6 - - SSW 1011,1 10 0,2
20.09.2018 04:00:00 12,0 10,1 - - 11 6 - - SSW 1011,7 10 0,8
20.09.2018 03:00:00 13,5 7,9 - - 15 8 - - SW 1011,9 10 0,0
20.09.2018 02:00:00 13,7 7,6 - - 22 12 - - SW 1011,8 30 0,0
20.09.2018 01:00:00 13,8 7,0 - - 18 10 - - SW 1012,0 10 0,0
20.09.2018 00:00:00 14,0 6,8 - - 21 11 - - SW 1011,8 10 0,0
19.09.2018 23:00:00 14,5 5,5 - - 21 11 - - WSW 1011,9 10 0,0
19.09.2018 22:00:00 14,9 3,7 - - 28 15 - - WSW 1011,7 10 0,0
19.09.2018 21:00:00 15,5 3,3 - - 22 12 - - WSW 1010,9 10 0,0
19.09.2018 20:00:00 16,1 4,9 - - 28 15 54 29 WSW 1010,0 10 0,0
19.09.2018 19:00:00 17,9 8,6 - - 31 17 59 32 WSW 1008,9 10 0,0
19.09.2018 18:00:00 19,6 11,9 - - 35 19 63 34 WSW 1007,8 10 0,0
19.09.2018 17:00:00 18,6 14,8 - - 37 20 78 42 WSW 1006,9 10 0,0
19.09.2018 16:00:00 22,4 12,0 - - 48 26 87 47 SW 1005,4 10 0,0
19.09.2018 15:00:00 23,3 11,1 - - 55 30 87 47 SW 1005,1 10 0,0
19.09.2018 14:00:00 24,0 9,8 - - 52 28 76 41 SW 1004,8 10 0,0
19.09.2018 13:00:00 23,2 11,4 - - 54 29 76 41 SSW 1005,2 10 0,0
19.09.2018 12:00:00 21,5 12,4 - - 46 25 78 42 SW 1005,6 10 0,0
19.09.2018 11:00:00 20,0 13,0 - - 44 24 70 38 SSW 1006,6 10 0,0

tt = temperature
td = dewpoint
tt -20cm = temperature -20cm
tt -100cm = temperature -100cm
ff = wind speed
fx = gusts
dd = wind direction
ppp = reduced air pressure
vv = visibility
rr = precipitation

Next stations